CW2099 Weather Reports


Display with metric or nautical units.
time (UTC)temp
F
wind
direction
speed
MPH
gust
MPH
rain 1hr
in
rain 24hr
in
rain mn
in
humidity
%
barometer
mb
20260505194557 43 138 3.0 12.0 0.00 0.00 0.00 28 1007.0
20260505193105 44 149 2.0 7.0 0.00 0.00 0.00 28 1007.0
20260505191551 44 16 3.0 9.0 0.00 0.00 0.00 29 1006.7
20260505190047 44 128 3.0 9.0 0.00 0.00 0.00 30 1006.6
20260505184553 44 132 2.0 7.0 0.00 0.00 0.00 28 1006.4
20260505183044 44 164 1.0 6.0 0.00 0.00 0.00 29 1006.0
20260505181544 44 157 3.0 9.0 0.00 0.00 0.00 29 1005.8
20260505180045 44 26 2.0 6.0 0.00 0.00 0.00 31 1005.7
20260505174542 44 5 2.0 7.0 0.00 0.00 0.00 32 1005.6
20260505173041 44 138 3.0 7.0 0.00 0.00 0.00 30 1005.5
20260505171546 44 58 3.0 9.0 0.00 0.00 0.00 31 1005.4
20260505170040 44 141 3.0 7.0 0.00 0.00 0.00 32 1005.2
20260505164540 43 126 2.0 6.0 0.00 0.00 0.00 34 1005.1
20260505163040 43 48 2.0 6.0 0.00 0.00 0.00 31 1005.0
20260505161533 42 79 2.0 9.0 0.00 0.00 0.00 34 1004.8
20260505153042 41 29 2.0 8.0 0.00 0.00 0.00 39 1004.8
20260505151531 41 134 1.0 4.0 0.00 0.00 0.00 39 1004.8
20260505124516 38 233 1.0 3.0 0.00 0.00 0.00 49 1003.4
20260505123017 36 61 0.0 4.0 0.00 0.00 0.00 50 1003.3
20260505121514 35 95 0.0 3.0 0.00 0.00 0.00 52 1003.4
20260505120029 33 9 0.0 0.0 0.00 0.00 0.00 53 1003.4
20260505114513 33 9 0.0 0.0 0.00 0.00 0.00 55 1003.2
20260505113013 32 9 0.0 0.0 0.00 0.00 0.00 54 1003.2
20260505111522 31 9 0.0 0.0 0.00 0.00 0.00 56 1003.0
20260505101501 31 9 0.0 0.0 0.00 0.00 0.00 53 1002.2
20260505094558 31 9 0.0 0.0 0.00 0.00 0.00 54 1001.9
20260505093056 32 9 0.0 0.0 0.00 0.00 0.00 52 1001.6
20260505091617 32 9 0.0 0.0 0.00 0.00 0.00 51 1001.4
20260505090114 33 9 0.0 0.0 0.00 0.00 0.00 50 1001.4
20260505084607 33 9 0.0 0.0 0.00 0.00 0.00 49 1001.1
20260505083103 34 9 0.0 0.0 0.00 0.00 0.00 47 1001.2
20260505081557 35 9 0.0 0.0 0.00 0.00 0.00 47 1001.1
20260505080155 35 9 0.0 0.0 0.00 0.00 0.00 46 1001.0
20260505074640 36 9 0.0 0.0 0.00 0.00 0.00 46 1000.9
20260505073050 37 9 0.0 0.0 0.00 0.00 0.00 44 1001.0
20260505071545 37 9 0.0 2.0 0.00 0.00 0.00 43 1000.9
20260505070042 38 9 0.0 2.0 0.00 0.00 0.00 42 1000.9
20260505064535 38 85 1.0 3.0 0.00 0.00 0.00 41 1001.0
20260505063037 39 76 1.0 3.0 0.00 0.00 0.00 40 1001.0
20260505061530 40 62 1.0 4.0 0.00 0.00 0.00 38 1000.8
20260505060049 40 108 2.0 5.0 0.00 0.00 0.00 37 1000.7
20260505054524 40 132 1.0 3.0 0.00 0.00 0.00 38 1000.7
20260505053023 41 76 0.0 3.0 0.00 0.00 0.00 36 1000.6
20260505051521 41 109 1.0 4.0 0.00 0.00 0.00 36 1000.4
20260505041516 42 140 1.0 5.0 0.00 0.00 0.00 36 999.4
20260505040020 43 115 1.0 8.0 0.00 0.00 0.00 37 999.3
20260505034513 44 142 1.0 4.0 0.00 0.00 0.00 43 999.1
20260505033015 44 130 2.0 6.0 0.00 0.00 0.00 40 998.8
20260505031515 45 148 2.0 7.0 0.00 0.00 0.00 38 998.6
20260505030014 46 5 0.0 3.0 0.00 0.00 0.00 37 998.4
20260505024514 46 113 1.0 4.0 0.00 0.00 0.00 36 998.3
20260505023013 46 127 1.0 6.0 0.00 0.00 0.00 37 998.2
20260505021514 47 121 1.0 5.0 0.00 0.00 0.00 36 998.0
20260505020013 48 134 1.0 4.0 0.00 0.00 0.00 34 997.8
20260505014525 48 125 2.0 5.0 0.00 0.00 0.00 34 997.7
20260505013013 50 109 1.0 6.0 0.00 0.00 0.00 33 997.2
20260505011513 51 116 3.0 6.0 0.00 0.00 0.00 30 996.4
20260505010013 52 138 1.0 6.0 0.00 0.00 0.00 29 996.2
20260505004512 53 180 1.0 4.0 0.00 0.00 0.00 28 995.8
20260505003011 54 122 5.0 9.0 0.00 0.00 0.00 26 995.6
20260505001511 55 130 1.0 7.0 0.00 0.00 0.00 28 995.3
20260505000012 56 151 3.0 8.0 0.00 0.00 0.00 26 994.9
20260504234509 58 144 2.0 8.0 0.00 0.00 0.00 25 994.7
20260504233011 59 133 2.0 10.0 0.00 0.00 0.00 22 994.4
20260504231509 59 178 2.0 9.0 0.00 0.00 0.00 23 994.2
20260504230009 60 104 3.0 9.0 0.00 0.00 0.00 23 993.9
20260504224516 60 232 2.0 11.0 0.00 0.00 0.00 24 993.9
20260504223010 61 137 2.0 5.0 0.00 0.00 0.00 24 993.9
20260504221508 62 121 1.0 6.0 0.00 0.00 0.00 23 993.7
20260504220007 62 123 3.0 8.0 0.00 0.00 0.00 22 993.6
20260504214506 62 62 4.0 9.0 0.00 0.00 0.00 22 993.2
20260504213015 62 126 2.0 9.0 0.00 0.00 0.00 22 993.4
20260504211515 62 289 3.0 6.0 0.00 0.00 0.00 22 993.1
20260504210005 63 132 1.0 8.0 0.00 0.00 0.00 19 992.9
20260504204505 64 48 2.0 6.0 0.00 0.00 0.00 17 992.6
20260504203005 65 77 2.0 8.0 0.00 0.00 0.00 16 992.2
20260504201503 65 107 2.0 6.0 0.00 0.00 0.00 17 992.2
20260504200006 65 132 2.0 10.0 0.00 0.00 0.00 17 992.1